Location: Fluertsh�userhof
(48.7537°N, 10.3850°E)
Time: 13:15:48
(UTC+00:00)

Cosmos 1626 - Visible Passes

Search period start: 16 January 2021 00:00
Search period end: 26 January 2021 00:00
Orbit: 489 x 494 km, 82.5° (Epoch: 16 January)

Date Brightness Start Highest point End Pass type
(mag) Time Alt. Az. Time Alt. Az. Time Alt. Az.
16 Jan 2.9 16:34:02 10° SSE 16:37:18 30° E 16:40:36 10° NNE visible
16 Jan 4.6 18:09:41 10° WSW 18:12:35 21° WNW 18:15:30 10° NNW visible
17 Jan 4.0 17:46:47 10° SW 17:50:05 30° WNW 17:53:24 10° N visible
18 Jan 3.3 17:24:05 10° SSW 17:27:37 43° WNW 17:31:10 10° N visible
19 Jan 2.5 17:01:31 10° SSW 17:05:10 64° W 17:08:52 10° N visible
20 Jan 2.1 16:39:04 10° S 16:42:46 85° E 16:46:29 10° N visible
21 Jan 5.2 17:54:12 10° W 17:56:00 13° WNW 17:57:47 10° NW visible
22 Jan 4.9 17:30:50 10° WSW 17:33:25 18° WNW 17:36:02 10° NNW visible
23 Jan 4.4 17:07:49 10° SW 17:10:54 25° WNW 17:14:00 10° NNW visible
24 Jan 3.8 16:45:00 10° SW 16:48:24 35° WNW 16:51:49 10° N visible
